Showing default

GEESAT 5-06, 65555

Orbit data source: Space-Track

GEESAT 5-06, 65555 is a payload satellite owned by GeeSpace (CN) in LEO that was launched on Mon, 08 Sep 2025 UTC via a JIELONG-3 launch vehicle from the Yellow Sea Launch Area, China (YSLA). Payload-class satellites include a variety of spacecraft equipped with specific instruments for various scientific and technological missions. These include communications satellites like Starlink; space stations such as the ISS; scientific satellites like the Hubble; Earth observation satellites from companies like Planet Labs, Umbra, and HawkEye 360; GPS; miniature CubeSats for education and research; and military/defense satellites.

Loading next visibility...
Identifier
65555, 2025-201F
Orbit
LEO
Country
Flag of CNCN / PRC
Related business
Manufacturer
GWCG
Mission
Operational Commercial Navigation
Bus & Motor
GPS100, Unknown motor
Mass
130 kg wet, 130 kg dry
Launch date (UTC)
2025-09-08 (9 months ago)
Launch vehicle
JIELONG-3
Launch site
Yellow Sea Launch Area, China (YSLA)
Object type
Payload
Rocket body
Debris
Shape & HBR
Box + 2 Pan, 1.1 m
Radar Cross Section
0.833 m², Large (>1 m²)

Expand to show TLE details & history
Last TLE update: 16 hours ago

TLE from 16 hours ago
0 GEESAT 5-06
1 65555U 25201F   26171.19807127  .00001190  00000-0  16784-3 0  9998
2 65555  49.9924  25.3451 0013817 334.9917  25.0351 14.84164351 42235
Epoch: 2026-06-20T04:45Z
TLE epoch observation values (Epoch: 2026-06-20T04:45:13.357Z)
Latitude
-0.00001°
Longitude
45.6233°
Altitude
608 km
Speed
7.561 km/s
True Right ascension
01h 41m 22s
True Declination
0° 00' 00"
Sunlit
Object was in daylight at epoch
Visualization orbit readout
Latitude
Unknown
Longitude
Unknown
Altitude
Unknown
Speed
Unknown
Apparent Right ascension
Unknown
Apparent Declination
Unknown
Sunlit
N/A
Visualization observer readout
Local Sidereal Time
07:20:50
Azimuth
Unknown
Elevation
Unknown
Doppler factor
Unknown
Orbital elements
Apogee altitude
626.635 km
Perigee altitude
607.305 km
Semi-major axis
6,995.107 km
Eccentricity
0.00138
Inclination
49.9924°
RAAN
25.3451°
Arg. of periapsis
334.9917°
True anomaly
25.10221°
Mean anomaly
25.0351°
Eccentric anomaly
25.06864°
Mean motion
3.70981 °/min
Orbital period
97.04 mins
BSTAR
0.00016784
Loading maneuver chart data...
Computing Atmospheric mass density...
Loading historical data...
Loading historical data...
Loading historical data...
Loading historical data...
Loading historical data...
Loading historical data...
Loading historical data...

Documentation

Showing up to 5 results
|